Hourly Weather Kozino

Today, 24 October, Saturday

Time Temperature Precipitation Wind Pressure Humidity
00:00 +8°C° 0.1 mm 3 mps 743 mmHg 92%
01:00 +8°C° 0.1 mm 3 mps 743 mmHg 92%
02:00 +8°C° 0.1 mm 2 mps 744 mmHg 92%
03:00 +8°C° 0.1 mm 2 mps 744 mmHg 93%
04:00 +7°C° 0.1 mm 2 mps 744 mmHg 94%
05:00 +7°C° 0.1 mm 2 mps 744 mmHg 94%
06:00 +7°C° 0 mm 2 mps 744 mmHg 94%
07:00 +7°C° 0 mm 2 mps 744 mmHg 94%
08:00 +8°C° 0 mm 1 mps 744 mmHg 95%
09:00 +8°C° 0 mm 1 mps 744 mmHg 92%
10:00 +9°C° 0 mm 1 mps 744 mmHg 89%
11:00 +10°C° 0 mm 1 mps 745 mmHg 86%
12:00 +9°C° 0.1 mm 2 mps 745 mmHg 87%
13:00 +9°C° 0.1 mm 2 mps 744 mmHg 87%
14:00 +9°C° 0.1 mm 2 mps 744 mmHg 88%
15:00 +10°C° 0.1 mm 1 mps 745 mmHg 90%
16:00 +9°C° 0.1 mm 1 mps 745 mmHg 91%
17:00 +9°C° 0.1 mm 1 mps 745 mmHg 93%
18:00 +8°C° 0 mm 1 mps 745 mmHg 94%
19:00 +8°C° 0 mm 1 mps 745 mmHg 94%
20:00 +6°C° 0 mm 2 mps 745 mmHg 95%
21:00 +7°C° 0.6 mm 2 mps 745 mmHg 95%
22:00 +7°C° 0.6 mm 2 mps 745 mmHg 95%
23:00 +8°C° 0.6 mm 3 mps 745 mmHg 95%

Tomorrow, 25 October, Sunday

Time Temperature Precipitation Wind Pressure Humidity
00:00 +8°C° 0.2 mm 3 mps 745 mmHg 95%
01:00 +8°C° 0.2 mm 3 mps 745 mmHg 95%
02:00 +8°C° 0.2 mm 3 mps 745 mmHg 95%
03:00 +8°C° 0 mm 3 mps 746 mmHg 95%
04:00 +8°C° 0 mm 2 mps 746 mmHg 96%
05:00 +7°C° 0 mm 2 mps 746 mmHg 97%
06:00 +7°C° 0 mm 3 mps 746 mmHg 95%
07:00 +8°C° 0 mm 3 mps 747 mmHg 94%
08:00 +8°C° 0 mm 3 mps 747 mmHg 93%
09:00 +8°C° 0 mm 3 mps 748 mmHg 91%
10:00 +9°C° 0 mm 2 mps 748 mmHg 88%
11:00 +9°C° 0 mm 2 mps 749 mmHg 85%
12:00 +9°C° 0 mm 2 mps 749 mmHg 83%
13:00 +10°C° 0 mm 2 mps 750 mmHg 82%
14:00 +10°C° 0 mm 2 mps 750 mmHg 80%
15:00 +10°C° 0 mm 2 mps 750 mmHg 83%
16:00 +10°C° 0 mm 1 mps 750 mmHg 86%
17:00 +10°C° 0 mm 1 mps 750 mmHg 89%
18:00 +10°C° 0 mm 1 mps 751 mmHg 90%
19:00 +10°C° 0 mm 1 mps 751 mmHg 91%
20:00 +10°C° 0 mm 1 mps 752 mmHg 91%
21:00 +10°C° 0 mm 1 mps 752 mmHg 92%
22:00 +9°C° 0 mm 1 mps 752 mmHg 93%
23:00 +8°C° 0 mm 2 mps 752 mmHg 94%

Day after tomorrow, 26 October, Monday

Time Temperature Precipitation Wind Pressure Humidity
00:00 +7°C° 0 mm 2 mps 752 mmHg 95%
01:00 +7°C° 0 mm 2 mps 752 mmHg 95%
02:00 +6°C° 0 mm 2 mps 752 mmHg 96%
03:00 +6°C° 0 mm 2 mps 752 mmHg 96%
04:00 +6°C° 0 mm 2 mps 752 mmHg 96%
05:00 +6°C° 0 mm 2 mps 752 mmHg 96%
06:00 +6°C° 0 mm 2 mps 752 mmHg 96%
07:00 +6°C° 0 mm 2 mps 752 mmHg 95%
08:00 +6°C° 0 mm 2 mps 752 mmHg 95%
09:00 +8°C° 0 mm 3 mps 753 mmHg 91%
10:00 +9°C° 0 mm 3 mps 753 mmHg 87%
11:00 +10°C° 0 mm 3 mps 753 mmHg 84%
12:00 +11°C° 0 mm 3 mps 752 mmHg 84%
13:00 +11°C° 0 mm 3 mps 752 mmHg 84%
14:00 +12°C° 0 mm 3 mps 752 mmHg 84%
15:00 +11°C° 0 mm 3 mps 752 mmHg 86%
16:00 +10°C° 0 mm 3 mps 752 mmHg 89%
17:00 +10°C° 0 mm 3 mps 751 mmHg 91%
18:00 +10°C° 0 mm 4 mps 751 mmHg 90%
19:00 +10°C° 0 mm 4 mps 751 mmHg 89%
20:00 +9°C° 0 mm 5 mps 752 mmHg 88%
21:00 +9°C° 0 mm 5 mps 751 mmHg 88%
22:00 +9°C° 0 mm 5 mps 751 mmHg 87%
23:00 +9°C° 0 mm 5 mps 751 mmHg 86%

, 27 October, Tuesday

Time Temperature Precipitation Wind Pressure Humidity
00:00 +9°C° 0 mm 5 mps 751 mmHg 87%
01:00 +10°C° 0 mm 4 mps 751 mmHg 87%
02:00 +10°C° 0 mm 4 mps 751 mmHg 88%
03:00 +8°C° 0 mm 4 mps 751 mmHg 89%
04:00 +8°C° 0 mm 4 mps 751 mmHg 89%
05:00 +8°C° 0 mm 4 mps 751 mmHg 90%
06:00 +8°C° 0 mm 4 mps 751 mmHg 90%
07:00 +8°C° 0 mm 4 mps 751 mmHg 89%
08:00 +7°C° 0 mm 4 mps 751 mmHg 88%
09:00 +8°C° 0 mm 5 mps 751 mmHg 85%
10:00 +9°C° 0 mm 5 mps 751 mmHg 83%
11:00 +10°C° 0 mm 5 mps 751 mmHg 80%
12:00 +10°C° 0 mm 5 mps 751 mmHg 79%
13:00 +12°C° 0 mm 5 mps 751 mmHg 78%
14:00 +12°C° 0 mm 5 mps 751 mmHg 77%
15:00 +12°C° 0 mm 5 mps 751 mmHg 79%
16:00 +10°C° 0 mm 5 mps 751 mmHg 81%
17:00 +11°C° 0 mm 4 mps 751 mmHg 83%
18:00 +11°C° 0 mm 4 mps 751 mmHg 83%
19:00 +10°C° 0 mm 4 mps 751 mmHg 83%
20:00 +9°C° 0 mm 5 mps 751 mmHg 84%
21:00 +10°C° 0 mm 4 mps 751 mmHg 85%
22:00 +10°C° 0 mm 4 mps 751 mmHg 86%
23:00 +8°C° 0 mm 4 mps 751 mmHg 87%

27 October, Tuesday

Time Temperature Precipitation Wind Pressure Humidity
00:00 +9°C° 0 mm 5 mps 751 mmHg 87%
01:00 +10°C° 0 mm 4 mps 751 mmHg 87%
02:00 +10°C° 0 mm 4 mps 751 mmHg 88%
03:00 +8°C° 0 mm 4 mps 751 mmHg 89%
04:00 +8°C° 0 mm 4 mps 751 mmHg 89%
05:00 +8°C° 0 mm 4 mps 751 mmHg 90%
06:00 +8°C° 0 mm 4 mps 751 mmHg 90%
07:00 +8°C° 0 mm 4 mps 751 mmHg 89%
08:00 +7°C° 0 mm 4 mps 751 mmHg 88%
09:00 +8°C° 0 mm 5 mps 751 mmHg 85%
10:00 +9°C° 0 mm 5 mps 751 mmHg 83%
11:00 +10°C° 0 mm 5 mps 751 mmHg 80%
12:00 +10°C° 0 mm 5 mps 751 mmHg 79%
13:00 +12°C° 0 mm 5 mps 751 mmHg 78%
14:00 +12°C° 0 mm 5 mps 751 mmHg 77%
15:00 +12°C° 0 mm 5 mps 751 mmHg 79%
16:00 +10°C° 0 mm 5 mps 751 mmHg 81%
17:00 +11°C° 0 mm 4 mps 751 mmHg 83%
18:00 +11°C° 0 mm 4 mps 751 mmHg 83%
19:00 +10°C° 0 mm 4 mps 751 mmHg 83%
20:00 +9°C° 0 mm 5 mps 751 mmHg 84%
21:00 +10°C° 0 mm 4 mps 751 mmHg 85%
22:00 +10°C° 0 mm 4 mps 751 mmHg 86%
23:00 +8°C° 0 mm 4 mps 751 mmHg 87%

28 October, Wednesday

Time Temperature Precipitation Wind Pressure Humidity
00:00 +8°C° 0 mm 4 mps 751 mmHg 87%
01:00 +8°C° 0 mm 4 mps 751 mmHg 88%
02:00 +8°C° 0 mm 4 mps 750 mmHg 89%
03:00 +8°C° 0 mm 4 mps 750 mmHg 88%
04:00 +8°C° 0 mm 5 mps 750 mmHg 88%
05:00 +8°C° 0 mm 5 mps 750 mmHg 87%
06:00 +8°C° 0 mm 5 mps 750 mmHg 87%
07:00 +8°C° 0 mm 5 mps 750 mmHg 87%
08:00 +7°C° 0 mm 5 mps 750 mmHg 87%
09:00 +8°C° 0 mm 4 mps 750 mmHg 86%
10:00 +10°C° 0 mm 4 mps 751 mmHg 84%
11:00 +11°C° 0 mm 4 mps 751 mmHg 82%
12:00 +11°C° 0 mm 4 mps 751 mmHg 83%
13:00 +11°C° 0 mm 3 mps 751 mmHg 83%
14:00 +12°C° 0 mm 3 mps 751 mmHg 83%
15:00 +11°C° 0 mm 3 mps 751 mmHg 85%
16:00 +12°C° 0 mm 2 mps 751 mmHg 87%
17:00 +12°C° 0 mm 2 mps 752 mmHg 88%
18:00 +12°C° 0 mm 2 mps 752 mmHg 88%
19:00 +12°C° 0 mm 2 mps 752 mmHg 89%
20:00 +11°C° 0 mm 3 mps 752 mmHg 89%
21:00 +11°C° 0 mm 3 mps 752 mmHg 89%
22:00 +11°C° 0 mm 3 mps 752 mmHg 89%
23:00 +11°C° 0 mm 3 mps 752 mmHg 89%

29 October, Thursday

Time Temperature Precipitation Wind Pressure Humidity
00:00 +11°C° 0 mm 3 mps 752 mmHg 88%
01:00 +11°C° 0 mm 3 mps 752 mmHg 88%
02:00 +10°C° 0 mm 3 mps 751 mmHg 88%
03:00 +10°C° 0 mm 3 mps 751 mmHg 88%
04:00 +10°C° 0 mm 3 mps 751 mmHg 87%
05:00 +10°C° 0 mm 3 mps 751 mmHg 87%
06:00 +10°C° 0 mm 3 mps 751 mmHg 87%
07:00 +10°C° 0 mm 3 mps 751 mmHg 87%
08:00 +9°C° 0 mm 3 mps 751 mmHg 87%
09:00 +10°C° 0 mm 3 mps 751 mmHg 86%
10:00 +10°C° 0 mm 4 mps 751 mmHg 85%
11:00 +10°C° 0 mm 4 mps 751 mmHg 83%
12:00 +10°C° 0 mm 4 mps 751 mmHg 82%
13:00 +11°C° 0 mm 4 mps 751 mmHg 81%
14:00 +11°C° 0 mm 4 mps 750 mmHg 80%
15:00 +10°C° 0 mm 4 mps 750 mmHg 82%
16:00 +10°C° 0 mm 4 mps 750 mmHg 84%
17:00 +10°C° 0 mm 3 mps 750 mmHg 85%
18:00 +9°C° 0 mm 3 mps 750 mmHg 87%
19:00 +9°C° 0 mm 3 mps 750 mmHg 88%
20:00 +9°C° 0 mm 3 mps 750 mmHg 89%
21:00 +9°C° 0 mm 3 mps 750 mmHg 90%
22:00 +9°C° 0 mm 3 mps 750 mmHg 91%
23:00 +9°C° 0 mm 3 mps 750 mmHg 92%
Show more